Location: Fort Wayne
(41.1310°N, 85.1290°W)
Time: 02:22:33
(UTC-04:00)

Cosmos 2219 Rocket - Visible Passes

Search period start: 30 May 2015 00:00
Search period end: 09 June 2015 00:00
Orbit: 827 x 848 km, 71.0° (Epoch: 29 May)

Date Brightness Start Highest point End Pass type
(mag) Time Alt. Az. Time Alt. Az. Time Alt. Az.
30 May 5.0 01:26:57 10° WNW 01:28:44 11° NW 01:30:14 10° NNW visible
30 May 3.7 21:40:36 10° SE 21:43:44 16° E 21:47:08 10° ENE visible
30 May 2.4 23:21:34 10° SSW 23:27:08 69° WNW 23:32:47 10° NNE visible
31 May 5.0 01:10:07 10° WNW 01:12:20 12° NW 01:14:18 10° NNW visible
31 May 2.3 23:05:15 10° SSW 23:10:50 74° WNW 23:16:30 10° NNE visible
01 Jun 5.0 00:53:21 10° WNW 00:55:57 13° NW 00:58:18 10° NNW visible
01 Jun 2.3 22:48:55 10° SSW 22:54:31 80° WNW 23:00:12 10° NNE visible
02 Jun 5.0 00:36:39 10° WNW 00:39:33 14° NW 00:42:14 10° NNW visible
02 Jun 2.2 22:32:37 10° SSW 22:38:13 86° WNW 22:43:54 10° NNE visible
03 Jun 5.0 00:19:59 10° W 00:23:10 15° NW 00:26:08 10° NNW visible
03 Jun 2.2 22:16:18 10° SSW 22:21:54 88° ESE 22:27:36 10° NNE visible
04 Jun 5.0 00:03:22 10° W 00:06:47 16° NW 00:10:00 10° NNW visible
04 Jun 2.2 22:00:01 10° SSW 22:05:36 82° ESE 22:11:17 10° NNE visible
04 Jun 5.0 23:46:46 10° W 23:50:24 17° NW 23:53:52 10° N visible
05 Jun 2.2 21:43:44 10° SSW 21:49:18 76° ESE 21:54:58 10° NNE visible
05 Jun 5.0 23:30:11 10° W 23:34:01 18° NW 23:37:41 10° N visible
06 Jun 5.0 23:13:38 10° W 23:17:39 19° NW 23:21:30 10° N visible
07 Jun 5.0 22:57:06 10° W 23:01:16 20° NW 23:05:19 10° N visible
08 Jun 4.9 22:40:35 10° WSW 22:44:54 22° NW 22:49:07 10° N visible
